| time (UTC) | temp F | wind direction | speed MPH | gust MPH | rain 1hr in | rain 24hr in | rain mn in | humidity % | barometer mb |
| 20260504081502 | 57 | 360 | 4.0 | 7.0 | 0.00 | 0.01 | 0.00 | 79 | 1014.1 |
| 20260504080109 | 57 | 17 | 2.0 | 4.0 | 0.00 | 0.01 | 0.00 | 79 | 1014.0 |
| 20260504044535 | 48 | 13 | 3.0 | 5.0 | 0.00 | 0.01 | 0.00 | 87 | 1013.2 |
| 20260504043032 | 48 | 11 | 4.0 | 6.0 | 0.00 | 0.01 | 0.00 | 87 | 1013.2 |
| 20260504041531 | 48 | 14 | 4.0 | 6.0 | 0.00 | 0.01 | 0.00 | 87 | 1013.2 |
| 20260504040031 | 48 | 15 | 4.0 | 7.0 | 0.00 | 0.01 | 0.00 | 87 | 1013.3 |
| 20260504034529 | 48 | 14 | 3.0 | 8.0 | 0.00 | 0.01 | 0.00 | 86 | 1013.2 |
| 20260504033032 | 48 | 11 | 6.0 | 9.0 | 0.00 | 0.01 | 0.00 | 86 | 1013.2 |
| 20260504031529 | 47 | 17 | 6.0 | 8.0 | 0.00 | 0.01 | 0.00 | 88 | 1013.1 |
| 20260504030028 | 47 | 17 | 5.0 | 8.0 | 0.00 | 0.01 | 0.00 | 89 | 1013.2 |
| 20260504024525 | 47 | 9 | 2.0 | 4.0 | 0.00 | 0.01 | 0.00 | 87 | 1013.2 |
| 20260504023022 | 47 | 13 | 2.0 | 4.0 | 0.00 | 0.01 | 0.00 | 87 | 1013.1 |
| 20260504021522 | 47 | 13 | 2.0 | 4.0 | 0.00 | 0.01 | 0.00 | 86 | 1013.2 |
| 20260504020022 | 47 | 14 | 1.0 | 4.0 | 0.00 | 0.01 | 0.00 | 86 | 1013.3 |
| 20260504014517 | 48 | 17 | 3.0 | 6.0 | 0.00 | 0.01 | 0.00 | 85 | 1013.3 |
| 20260504013018 | 49 | 359 | 3.0 | 5.0 | 0.00 | 0.01 | 0.00 | 85 | 1013.5 |
| 20260504011511 | 49 | 4 | 3.0 | 6.0 | 0.00 | 0.01 | 0.00 | 84 | 1013.4 |
| 20260504010010 | 50 | 14 | 4.0 | 7.0 | 0.00 | 0.01 | 0.00 | 84 | 1013.4 |
| 20260504004509 | 50 | 15 | 6.0 | 9.0 | 0.00 | 0.01 | 0.00 | 83 | 1013.4 |
| 20260504003008 | 51 | 14 | 5.0 | 9.0 | 0.00 | 0.01 | 0.00 | 83 | 1013.4 |
| 20260504001507 | 50 | 9 | 5.0 | 9.0 | 0.00 | 0.01 | 0.00 | 85 | 1013.4 |
| 20260504000012 | 50 | 11 | 5.0 | 7.0 | 0.00 | 0.01 | 0.00 | 86 | 1013.2 |
| 20260503234502 | 50 | 13 | 5.0 | 7.0 | 0.00 | 0.01 | 0.00 | 86 | 1013.2 |
| 20260503233006 | 50 | 29 | 4.0 | 6.0 | 0.00 | 0.01 | 0.00 | 87 | 1013.2 |
| 20260503231501 | 50 | 17 | 4.0 | 6.0 | 0.00 | 0.01 | 0.00 | 86 | 1013.1 |
| 20260503230103 | 50 | 2 | 4.0 | 6.0 | 0.00 | 0.01 | 0.00 | 87 | 1013.1 |
| 20260503224559 | 50 | 9 | 4.0 | 6.0 | 0.00 | 0.01 | 0.00 | 87 | 1013.3 |
| 20260503223058 | 50 | 15 | 4.0 | 6.0 | 0.00 | 0.01 | 0.00 | 87 | 1013.4 |
| 20260503221559 | 51 | 13 | 4.0 | 6.0 | 0.00 | 0.01 | 0.00 | 86 | 1013.4 |
| 20260503220051 | 51 | 354 | 3.0 | 6.0 | 0.00 | 0.01 | 0.00 | 87 | 1013.4 |
| 20260503214551 | 51 | 12 | 3.0 | 6.0 | 0.00 | 0.01 | 0.01 | 87 | 1013.2 |
| 20260503213050 | 51 | 13 | 5.0 | 7.0 | 0.00 | 0.01 | 0.01 | 87 | 1013.4 |
| 20260503211556 | 51 | 9 | 5.0 | 7.0 | 0.00 | 0.01 | 0.01 | 85 | 1013.2 |
| 20260503210047 | 52 | 13 | 2.0 | 4.0 | 0.00 | 0.01 | 0.01 | 85 | 1013.2 |
| 20260503204546 | 52 | 8 | 3.0 | 4.0 | 0.00 | 0.01 | 0.01 | 85 | 1013.2 |
| 20260503203100 | 52 | 9 | 3.0 | 5.0 | 0.00 | 0.01 | 0.01 | 85 | 1013.3 |
| 20260503201545 | 52 | 11 | 5.0 | 7.0 | 0.00 | 0.01 | 0.01 | 85 | 1013.3 |
| 20260503200044 | 52 | 11 | 4.0 | 6.0 | 0.00 | 0.01 | 0.01 | 85 | 1013.3 |
| 20260503194547 | 52 | 11 | 4.0 | 6.0 | 0.00 | 0.01 | 0.01 | 85 | 1013.2 |
| 20260503193040 | 53 | 14 | 2.0 | 4.0 | 0.00 | 0.01 | 0.01 | 85 | 1013.2 |
| 20260503191541 | 53 | 13 | 2.0 | 3.0 | 0.00 | 0.01 | 0.01 | 84 | 1013.2 |
| 20260503190039 | 54 | 12 | 2.0 | 4.0 | 0.00 | 0.01 | 0.01 | 83 | 1013.2 |
| 20260503184533 | 55 | 12 | 1.0 | 4.0 | 0.00 | 0.01 | 0.01 | 83 | 1013.1 |
| 20260503183031 | 56 | 11 | 2.0 | 5.0 | 0.00 | 0.01 | 0.01 | 82 | 1012.9 |
| 20260503181531 | 56 | 11 | 3.0 | 6.0 | 0.00 | 0.01 | 0.01 | 81 | 1012.7 |
| 20260503180032 | 57 | 19 | 1.0 | 6.0 | 0.00 | 0.01 | 0.01 | 82 | 1012.6 |
| 20260503174530 | 57 | 18 | 4.0 | 8.0 | 0.00 | 0.01 | 0.01 | 83 | 1012.6 |
| 20260503173045 | 57 | 22 | 4.0 | 7.0 | 0.00 | 0.01 | 0.01 | 83 | 1012.6 |
| 20260503171536 | 57 | 19 | 3.0 | 7.0 | 0.00 | 0.01 | 0.01 | 84 | 1012.6 |